Kaneohe MCBH, HI

8:18 AM HST on June 23, 2017 (GMT -1000)
Kaneohe Bay Marine Corps Air Facility

Weather History for PHNG - August, 2013

Change the Weather History Date:

Monday, August 5, 2013

  Actual Average Record
Temperature  
Mean Temperature 80 °F -  
Max Temperature 86 °F 81 °F 86 °F (2013)
Min Temperature 75 °F 73 °F 72 °F (2012)
Cooling Degree Days 16    
Growing Degree Days 30 (Base 50)    
Moisture  
Dew Point 70 °F    
Average Humidity 75    
Maximum Humidity 87    
Minimum Humidity 57    
Precipitation  
Precipitation 0.00 in - - ()
Sea Level Pressure  
Sea Level Pressure 30.01 in    
Wind  
Wind Speed 8 mph (ENE)    
Max Wind Speed 12 mph    
Max Gust Speed 18 mph    
Visibility 9 miles    
Events Rain    
Averages and records for this station are not official NWS values.
T = Trace of Precipitation, MM = Missing Value Source: NWS Daily Summary

Daily Weather History Graph

Daily Weather History Graph

Search for Another Location

Airport or City:

Trip Planner

Search our weather history database for the weather conditions in past years. The results will help you decide how hot, cold, wet, or windy it might be!

Date:

Astronomy

Aug. 05, 2013 Rise Set
Actual Time 6:06 AM HST 7:07 PM HST
Civil Twilight 5:42 AM HST 7:31 PM HST
Nautical Twilight 5:14 AM HST 7:59 PM HST
Astronomical Twilight 4:46 AM HST 8:27 PM HST
Moon 5:09 AM HST (8/5) 6:20 PM HST (8/5)
Length of Visible Light 13h 48m
Length of Day
13h 01m
Waning Crescent, 1% of the Moon is Illuminated
Aug 5
Waning Crescent
Aug 6
New
Aug 14
First Quarter
Aug 20
Full
Aug 27
Last Quarter

Hourly Weather History & Observations

Time (HST) Temp. Heat Index Dew Point Humidity Pressure Visibility Wind Dir Wind Speed Gust Speed Precip Events Conditions
12:55 AM 77.0 °F - 71.6 °F 83% 30.03 in 6.2 mi NE 9.2 mph - N/A   Mostly Cloudy
12:57 AM 77.0 °F - 71.1 °F 82% 30.02 in 10.0 mi NE 9.2 mph - N/A   Mostly Cloudy
1:06 AM - - - N/A% 30.03 in 6.2 mi NE 8.1 mph - N/A   Scattered Clouds
1:15 AM - - - N/A% 30.03 in 6.2 mi NE 10.4 mph - 0.00 in Rain Rain
1:23 AM - - - N/A% 30.02 in 6.2 mi NNE 9.2 mph - 0.00 in Rain Light Rain
1:57 AM 75.2 °F - 71.1 °F 87% 30.00 in 10.0 mi East 4.6 mph - 0.00 in   Partly Cloudy
2:57 AM 75.2 °F - 68.0 °F 78% 29.99 in 10.0 mi ENE 4.6 mph - N/A   Scattered Clouds
3:57 AM 75.2 °F - 69.1 °F 81% 29.99 in 10.0 mi East 4.6 mph - N/A   Mostly Cloudy
4:57 AM 75.2 °F - 68.0 °F 78% 29.99 in 10.0 mi ENE 5.8 mph - N/A   Scattered Clouds
5:57 AM 77.0 °F - 69.1 °F 76% 30.00 in 10.0 mi ENE 5.8 mph - N/A   Scattered Clouds
6:57 AM 77.0 °F - 69.1 °F 76% 30.01 in 10.0 mi East 8.1 mph - 0.00 in   Mostly Cloudy
7:22 AM 77.0 °F - 71.6 °F 83% 30.03 in 6.2 mi East 4.6 mph - N/A   Mostly Cloudy
7:42 AM 77.0 °F - 71.6 °F 83% 30.03 in 6.2 mi ENE 9.2 mph - 0.00 in   Scattered Clouds
7:57 AM 77.0 °F - 71.1 °F 82% 30.03 in 10.0 mi East 8.1 mph 16.1 mph 0.00 in   Scattered Clouds
8:57 AM 77.0 °F - 70.0 °F 79% 30.03 in 10.0 mi East 6.9 mph 16.1 mph N/A   Scattered Clouds
9:57 AM 77.0 °F - 71.1 °F 82% 30.04 in 10.0 mi East 9.2 mph 18.4 mph N/A   Scattered Clouds
10:57 AM 78.8 °F - 70.0 °F 74% 30.03 in 10.0 mi ENE 8.1 mph 16.1 mph N/A   Scattered Clouds
11:04 AM 80.6 °F 83.9 °F 69.8 °F 70% 30.05 in 6.2 mi ENE 10.4 mph 18.4 mph N/A   Mostly Cloudy
11:57 AM 80.6 °F 83.9 °F 70.0 °F 70% 30.02 in 10.0 mi ENE 11.5 mph 17.3 mph N/A   Scattered Clouds
12:04 PM 84.2 °F 88.4 °F 69.8 °F 62% 30.03 in 6.2 mi ENE 10.4 mph 17.3 mph N/A   Mostly Cloudy
12:54 PM 84.2 °F 88.4 °F 69.8 °F 62% 30.02 in 6.2 mi ENE 10.4 mph - N/A   Scattered Clouds
12:57 PM 84.2 °F 87.9 °F 69.1 °F 60% 30.00 in 10.0 mi ENE 10.4 mph - N/A   Scattered Clouds
1:57 PM 86.0 °F 90.7 °F 70.0 °F 59% 29.99 in 10.0 mi ENE 9.2 mph 16.1 mph N/A   Scattered Clouds
2:04 PM 86.0 °F 90.4 °F 69.8 °F 58% 30.00 in 6.2 mi NE 10.4 mph - N/A   Overcast
2:25 PM 86.0 °F 90.4 °F 69.8 °F 58% 30.00 in 6.2 mi NE 10.4 mph - N/A   Mostly Cloudy
2:57 PM 86.0 °F 90.1 °F 69.1 °F 57% 29.98 in 10.0 mi ENE 11.5 mph 17.3 mph N/A   Mostly Cloudy
3:57 PM 84.2 °F 89.3 °F 71.1 °F 65% 29.97 in 10.0 mi ENE 11.5 mph - N/A   Scattered Clouds
4:57 PM 77.0 °F - 71.1 °F 82% 29.97 in 10.0 mi ENE 10.4 mph - N/A   Clear
5:57 PM 77.0 °F - 70.0 °F 79% 29.98 in 10.0 mi ENE 8.1 mph - N/A   Scattered Clouds
6:57 PM 77.0 °F - 69.1 °F 76% 29.99 in 10.0 mi ENE 8.1 mph - N/A   Partly Cloudy
7:57 PM 77.0 °F - 68.0 °F 74% 30.01 in 10.0 mi East 5.8 mph - N/A   Mostly Cloudy
8:09 PM 75.2 °F - 69.8 °F 83% 30.03 in 6.2 mi East 6.9 mph - N/A   Overcast
8:25 PM 75.2 °F - 69.8 °F 83% 30.03 in 6.2 mi ENE 9.2 mph - N/A   Overcast
8:57 PM 75.2 °F - 69.1 °F 81% 30.02 in 10.0 mi ENE 5.8 mph - N/A   Overcast
9:57 PM 75.2 °F - 70.0 °F 84% 30.04 in 10.0 mi East 8.1 mph 16.1 mph N/A   Scattered Clouds
10:57 PM 75.2 °F - 68.0 °F 78% 30.03 in 10.0 mi East 8.1 mph 18.4 mph N/A   Scattered Clouds
11:26 PM 75.2 °F - 69.8 °F 83% 30.04 in 6.2 mi ENE 5.8 mph - N/A   Mostly Cloudy
11:57 PM 75.2 °F - 69.1 °F 81% 30.02 in 10.0 mi East 6.9 mph 16.1 mph N/A   Mostly Cloudy